Powrót do katalogu

FENGYUN 1C DEB

AktywnySSO
NORAD 30310·DEBRIS·🇨🇳 China

Wystrzelony May 10, 1999 z Taiyuan Satellite Launch Center

Loading…

Następne Przeloty (najbliższe 24 godziny)

TLE

ŚwieżeSource: Space-Track

Epoka: Sep 14, 2026, 06:27 UTC

1 30310U 99025ZX  26257.26876401  .00000636  00000-0  30287-3 0  9996
2 30310  98.6521 271.2983 0238126 296.1263  61.5585 14.09046216  6103

Śledź FENGYUN 1C DEB w czasie rzeczywistym z AllMySat

Download on the App Store